This is the latest recevied weather packets stored in our database for station/object WI0K. If no packets are shown the sender has not sent any weather packets the latest 10 day(s).
| Time | Temp. | Humidity | Pressure | Rain* | Wind** | Luminosity | Snow |
|---|---|---|---|---|---|---|---|
| 1788628217 | 28.89° C | 28% | 1019.6 hPa | 0 mm | - | 852 W/m² | - |
| 1788627916 | 28.89° C | 28% | 1019.6 hPa | 0 mm | - | 803 W/m² | - |
| 1788627615 | 28.89° C | 29% | 1019.6 hPa | 0 mm | - | 814 W/m² | - |
| 1788627315 | 28.89° C | 29% | 1019.7 hPa | 0 mm | - | 798 W/m² | - |
| 1788627014 | 28.89° C | 29% | 1019.7 hPa | 0 mm | - | 784 W/m² | - |
| 1788626712 | 28.33° C | 30% | 1019.7 hPa | 0 mm | - | 771 W/m² | - |
| 1788626412 | 28.33° C | 30% | 1019.7 hPa | 0 mm | - | 757 W/m² | - |
| 1788626111 | 27.78° C | 30% | 1019.6 hPa | 0 mm | - | 747 W/m² | - |
| 1788625810 | 27.78° C | 30% | 1019.7 hPa | 0 mm | - | 732 W/m² | - |
| 1788625509 | 27.78° C | 32% | 1019.7 hPa | 0 mm | - | 719 W/m² | - |
| 1788625208 | 27.78° C | 32% | 1019.6 hPa | 0 mm | - | 706 W/m² | - |
| 1788624908 | 27.22° C | 35% | 1019.6 hPa | 0 mm | - | 692 W/m² | - |
| 1788624606 | 27.22° C | 32% | 1019.6 hPa | 0 mm | - | 679 W/m² | - |
| 1788624306 | 27.22° C | 33% | 1019.6 hPa | 0 mm | - | 674 W/m² | - |
| 1788624004 | 26.67° C | 33% | 1019.6 hPa | 0 mm | - | 655 W/m² | - |
| 1788623704 | 26.67° C | 36% | 1019.6 hPa | 0 mm | - | 659 W/m² | - |
| 1788623403 | 26.11° C | 34% | 1019.7 hPa | 0 mm | - | 627 W/m² | - |
| 1788623102 | 26.67° C | 34% | 1019.7 hPa | 0 mm | - | 607 W/m² | - |
| 1788622802 | 26.67° C | 35% | 1019.7 hPa | 0 mm | - | 586 W/m² | - |
| 1788622501 | 26.67° C | 38% | 1019.7 hPa | 0 mm | - | 580 W/m² | - |
| 1788622200 | 26.67° C | 35% | 1019.7 hPa | 0 mm | - | 575 W/m² | - |
| 1788621899 | 26.11° C | 38% | 1019.7 hPa | 0 mm | - | 347 W/m² | - |
| 1788621598 | 25.56° C | 38% | 1019.7 hPa | 0 mm | - | 593 W/m² | - |
| 1788621298 | 25.56° C | 39% | 1019.6 hPa | 0 mm | - | 585 W/m² | - |
| 1788620997 | 25° C | 42% | 1019.7 hPa | 0 mm | - | 575 W/m² | - |
* Rain latest hour (hover to see other rain measurements)
** Current wind speed in m/s (hover to see current wind gust speed)